Weather in Tanrykulovo

Russia / Kurgan Oblast     54°54′18″N   63°09′27″E
temp.,
°C
wind,
m/s
gust,
m/s
humid.,
%
clouds,
%
prec.,
mm/h
press.,
hPa
HPBL,
m
19 april, mon
mon1923:00−2ne610380 0.0 1029988
02:00−3ne59420 0.0 10311004
05:00−4ne48460 0.0 1033947
08:00−4ne57390 0.0 1034981
11:00−1ne57300 0.0 10341404
14:00+1ne67270 0.0 10331777
17:00+2ne562953 0.0 10331956
20:00−1ne22415 0.0 103319
20 april, tue
tue2023:00−1nnw22445 0.0 103415
02:00−2nne23500 0.0 103460
05:00−3nne22480 0.0 103438
08:000n24344 0.0 1035387
11:00+3n342916 0.0 10341332
14:00+5wnw34285 0.0 10321511
17:00+7wnw45290 0.0 10311659
20:00+5wsw33420 0.0 102938
21 april, wed
wed2123:00+3w34520 0.0 103062
02:00+2nw36630 0.0 102993
05:00+1nw36730 0.0 103093
08:00+4nw47620 0.0 1031278
11:00+8nnw45460 0.0 1032938
14:00+11nnw33375 0.0 10311454
17:00+12n23365 0.0 10311636
20:00+9ne11485 0.0 103310
22 april, thu
thu2223:00+7e45614 0.0 103484
02:00+5se49765 0.0 1035171
05:00+3sse377912 0.0 1036115
08:00+6sse4766100 0.0 1037244
11:00+12sse564499 0.0 10361076
14:00+14s673598 0.0 10361718
17:00+14s6732100 0.0 10351898
20:00+11sse3746100 0.0 1035157
23 april, fri
fri2323:00+9sse4959100 0.0 1035195
02:00+7sse4968100 0.0 1035177
05:00+6sse497399 0.0 1035168
08:00+8s51061100 0.0 1035373
11:00+12s6842100 0.0 1034847
14:00+13s6738100 0.0 10331476
17:00+13s6832100 0.0 10321823
20:00+11se5104198 0.0 1031294